Regional Weather Roundup
Issued by NWS

Home | Current Version | Previous Version | Text Only | Print | Product List | Glossary Off
Versions: 1 2 3 4 5 6 7 8 9 10 11 12 13 14 15 16 17 18 19 20 21 22 23 24 25 26 27 28 29 30 31 32 33 34 35 36 37 38 39 40 41 42 43 44 45 46 47 48 49 50

000
ASUS45 KSLC 291410
RWRUT

UTAH REGIONAL WEATHER ROUNDUP
NATIONAL WEATHER SERVICE SALT LAKE CITY UT
800 AM MDT WED MAR 29 2017

UTZ001>011-023>025-291500-

NORTHERN UTAH

CITY           SKY/WX    TMP DP  RH WIND       PRES   REMARKS
BRIGHAM CITY     N/A     33  29  83 CALM      30.25S
DUGWAY         PTCLDY    29  27  92 NE2       30.25
HILL AFB       CLEAR     35  25  66 E13       30.24R WCI  26
LOGAN          CLEAR     32  27  81 NE5       30.25R WCI  27
OGDEN          CLEAR     33  27  78 S7        30.24R WCI  27
SALT LAKE CITY MOCLDY    36  30  79 S7        30.25R WCI  30
TOOELE VALLEY  CLEAR     32  30  93 S6        30.25S WCI  26
WENDOVER       CLEAR     36  26  67 CALM      30.26R
HEBER CITY     PTCLDY    27  23  86 CALM      30.25R
WEST JORDAN    CLEAR     37  35  94 SW3       30.26R

$$

UTZ011>015-024>027-291500-

CENTRAL/NORTHEAST UTAH

CITY           SKY/WX    TMP DP  RH WIND       PRES   REMARKS
PROVO AIRPORT  PTCLDY    30  27  88 SE3       30.27R
MOAB/CANYONLAN CLEAR     39  31  72 SW6       30.14R WCI  35
DELTA          PTCLDY    32  28  86 SW3       30.25R
PRICE          CLEAR     37  23  56 N12       30.18R WCI  29
RICHFIELD      CLEAR     27  27 100 CALM      30.28R
ROOSEVELT      CLOUDY    36  30  80 N3        30.23R
VERNAL         CLOUDY    32  26  78 NW3       30.20R

$$

UTZ013>016-019>022-027-291500-

SOUTHERN UTAH

CITY           SKY/WX    TMP DP  RH WIND       PRES   REMARKS
BRYCE CANYON   CLEAR     30  20  66 N7        30.22R WCI  23
CEDAR CITY     CLEAR     27  23  85 N8        30.20R WCI  19
MILFORD        CLEAR     28  25  88 S3        30.24R
ST GEORGE      MOSUNNY   45  26  47 CALM      30.16R
HANKSVILLE     CLEAR     34  25  69 NW6       30.19R WCI  29
KANAB          CLEAR     32  25  74 E5        30.21R WCI  27
BLANDING       CLEAR     43  26  50 N14G22    30.12S

$$

REGIONAL REPORTS     COLORADO/ARIZONA

CITY           SKY/WX    TMP DP  RH WIND       PRES   REMARKS
CRAIG, CO      MOSUNNY   30  26  85 SW8       30.19R WCI  22
GRAND JUNCTION SUNNY     42  31  64 NW5       30.14R
RIFLE, CO      SUNNY     38  31  76 E3        30.16R
MONTROSE, CO   CLOUDY    33  30  88 SE7       30.16R WCI  27
CORTEZ, CO     SUNNY     42  29  59 CALM      30.05R
COLORADO CITY    N/A     34  27  75 SE5       30.18S WCI  30
PAGE, AZ       CLEAR     47  22  37 CALM      30.13R
GRAND CANYON   CLEAR     27  23  85 CALM      30.16R
KINGMAN, AZ    CLEAR     38  16  40 E7        30.12R WCI  33
FLAGSTAFF, AZ  CLEAR     40  19  43 E9        30.10R WCI  34

$$

REGIONAL REPORTS    NEVADA/IDAHO/WYOMING

CITY           SKY/WX    TMP DP  RH WIND       PRES   REMARKS
LAS VEGAS, NV  PTCLDY    53  26  35 SW3       30.13R
ELY, NY        CLEAR     23  20  88 S8        30.26R WCI  14
ELKO, NV       CLEAR     28  24  85 SE3       30.27S
POCATELLO, ID  CLOUDY    36  29  75 SW7       30.23R WCI  30
BURLEY, ID     CLEAR     35  27  72 SW8       30.22R WCI  29
FORT BRIDGER,    N/A     30  24  79 SW5       30.25R WCI  25
EVANSTON, WY   CLOUDY    26  21  81 SW7       30.22R WCI  18
ROCK SPRINGS,  CLOUDY    30  22  72 SW13      30.20R WCI  20

$$



USA.gov is the U.S. government's official web portal to all federal, state and local government web resources and services.